This demonstration page uses our WeatherBlox Daily Observations layout. Learn more.

Left ArrowRight Arrow

41.55636, -103.73856

Hourly Observations for May 31, 2020

Temp ( °F °C ) Dew Point ( °F °C ) Humidity (%) Winds ( mph kmh ) Pressure ( in mb ) Visibility ( mi km ) Precip ( " mm )
12:58 am 00:58 Clear 71 21.6 55 12.7 57 57 ESE 9 15 30.03 1017 10 16 N/A
1:58 am 01:58 Clear 69 20.3 54 12.3 60 60 SE 10 17 30.06 1018 10 16 N/A
2:59 am 02:59 Mostly Clear 65 18.6 54 12.2 67 67 SE 12 19 30.07 1018 10 16 N/A
3:58 am 03:58 Mostly Cloudy 65 18.6 54 12.2 67 67 SE 14 22 30.07 1018 10 16 N/A
4:58 am 04:58 Clear 62 16.5 54 12.3 76 76 ESE 9 15 30.08 1019 10 16 N/A
5:58 am 05:58 Clear 61 16.2 55 12.5 79 79 SE 15 24 30.06 1018 10 16 N/A
6:58 am 06:58 Mostly Cloudy 59 14.8 54 12 83 83 SSE 9 15 30.04 1017 10 16 N/A
7:58 am 07:58 Clear 57 13.7 52 11.2 85 85 E 5 7 30.00 1016 10 16 N/A
8:58 am 08:58 Clear 55 12.8 52 11.1 90 90 ESE 6 9 30.00 1016 10 16 N/A
9:58 am 09:58 Clear 54 12.2 51 10.7 91 91 ESE 6 9 29.98 1015 10 16 N/A
10:58 am 10:58 Mostly Clear 51 10.7 49 9.5 92 92 E 8 13 29.99 1016 9 14 N/A
11:58 am 11:58 Partly Cloudy with Mist and Fog 52 11.1 51 10.4 96 96 S 10 17 29.99 1016 6 10 N/A
12:58 pm 12:58 Mostly Cloudy 57 13.7 53 11.6 87 87 S 5 7 30.00 1016 10 16 N/A
1:58 pm 13:58 Mostly Sunny 63 17.2 55 12.9 76 76 SSW 8 13 29.98 1015 10 16 N/A
2:58 pm 14:58 Sunny 71 21.7 57 14.1 62 62 SSW 8 13 29.95 1014 10 16 N/A
3:58 pm 15:58 Sunny 78 25.8 58 14.2 49 49 SSW 6 9 29.91 1013 10 16 N/A
4:58 pm 16:58 Sunny 83 28.1 46 8 28 28 WSW 8 13 29.90 1012 10 16 N/A
5:58 pm 17:58 Sunny 84 29.1 46 7.8 26 26 W 5 7 29.89 1012 10 16 N/A
6:58 pm 18:58 Sunny 86 30 46 8 25 25 SSW 6 9 29.89 1012 10 16 N/A
7:58 pm 19:58 Sunny 87 30.6 46 7.9 24 24 SSW 6 9 29.87 1011 10 16 N/A
8:58 pm 20:58 Sunny 86 30.2 42 5.8 21 21 SW 6 9 29.85 1011 10 16 N/A
9:58 pm 21:58 Mostly Cloudy 85 29.4 44 6.7 24 24 W 3 6 29.87 1012 10 16 N/A
10:58 pm 22:58 Windy with Rain Showers Likely 71 21.7 51 10.7 50 50 S 23 37 29.91 1013 10 16 0.05 1.27
11:58 pm 23:58 Cloudy 70 21.1 51 10.6 51 51 WNW 15 24 29.95 1014 10 16 N/A

Powered by AerisWeather